Content
SEND FEEDBACK

Daily
Averages
Monthly
Summary
United States of America

LINCOLN, NORTH DAKOTA


Home > North America > United States > North Dakota
Elevation: 1660 feet     Latitude: 46 46N     Longitude: 100 45W

WEATHER
 
SELECT A DAY
Number of Records: 207,433;   Date Range: 1/1/95 - 10/29/14
 
SHARE

PRINT THIS DATA

[ ← Previous Day ]
WEATHER ALMANAC - JUNE 7, 2014
[ Next Day → ]
[ °C ]   °F
Weather ElementAverageHighLow
Temperature57.8 °F68 °F (6:52 pm)46 °F (5:52 am)
Dewpoint42.9 °F46 °F (9:52 pm)39.9 °F (6:52 pm)
Humidity60.7 %87 % (3:52 am)36 % (6:52 pm)
Barometer30.14 in30.19 in (4:52 am)30.09 in (7:52 pm)
Wind Speed5.3 mph9.2 mph (1:52 pm)
Weather ElementAverage
Visibility10 mi
Wind DirectionSW (230 °)

Weather ElementTotal
Precipitation---
Heating Degree Days8 (Base 65)
Growing Degree Days7 (Base 50)
Averaged from 23 records on June 7, 2014
WEATHER CONDITIONS BREAKOUT
WIND DIRECTION BREAKOUT
WEATHER BY HOUR - JUNE 7, 2014
[ °C ]   °F
Local TimeTemperatureDewpointHumidityBarometerVisibilityWind DirectionWind SpeedGust SpeedPrecipitationEventsConditions
1:52 AM48.9 °F45.0 °F86 %30.17 in10.0 miWest (280°)3.5 mphOvercast
2:52 AM48.9 °F45.0 °F86 %30.17 in10.0 miWest (270°)4.6 mphOvercast
3:52 AM48.2 °F44.6 °F87 %30.16 in10.0 miWNW (300°)4.6 mphOvercast
4:52 AM48.9 °F44.1 °F83 %30.19 in10.0 miWNW (290°)5.8 mphOvercast
5:52 AM46.0 °F42.1 °F86 %30.19 in10.0 miWest (260°)3.5 mphClear
6:52 AM46.9 °F42.1 °F83 %30.19 in10.0 miWest (280°)6.9 mphClear
7:52 AM50.0 °F42.1 °F74 %30.19 in10.0 miWest (270°)4.6 mphClear
8:52 AM54.0 °F43.0 °F66 %30.19 in10.0 miWNW (290°)5.8 mphClear
9:52 AM57.2 °F44.6 °F63 %30.17 in10.0 miWest (270°)4.6 mphClear
10:52 AM61.0 °F45.0 °F56 %30.17 in10.0 miCalmClear
11:52 AM64.9 °F43.0 °F45 %30.15 in10.0 miWNW (300°)6.9 mphPartly Cloudy
12:52 PM64.9 °F41.0 °F42 %30.14 in10.0 miNW (310°)5.8 mphMostly Cloudy
1:52 PM66.9 °F41.0 °F39 %30.13 in10.0 miNW (320°)9.2 mphOvercast
2:52 PM66.9 °F43.0 °F42 %30.12 in10.0 miSSW (210°)9.2 mphPartly Cloudy
3:52 PM64.0 °F41.0 °F43 %30.12 in10.0 miSSW (210°)4.6 mphOvercast
4:52 PM66.9 °F42.1 °F40 %30.11 in10.0 miWSW (250°)8.1 mphPartly Cloudy
5:52 PM66.9 °F42.1 °F40 %30.11 in10.0 miSSW (210°)9.2 mphMostly Cloudy
6:52 PM68.0 °F39.9 °F36 %30.10 in10.0 miWSW (250°)8.1 mphClear
7:52 PM66.0 °F41.0 °F40 %30.09 in10.0 miSW (230°)5.8 mphClear
8:52 PM64.0 °F41.0 °F43 %30.09 in10.0 miSSW (200°)3.5 mphClear
9:52 PM55.9 °F46.0 °F69 %30.11 in10.0 miSSE (160°)3.5 mphClear
10:52 PM53.1 °F44.1 °F71 %30.12 in10.0 miSE (130°)3.5 mphClear
11:52 PM51.1 °F44.1 °F77 %30.12 in10.0 miCalmClear
Hourly data recorded from KBIS, located miles away from Lincoln, North Dakota







STORIES FROM OUR PARTNERS